Torna al catalogo

THOR ABLESTAR DEB

AttivoLEO
NORAD 172·DEBRIS·🇺🇸 United States

Lanciato Jun 29, 1961 da Cape Canaveral Space Force Station

Loading…

Prossimi Passaggi (prossime 24 ore)

TLE

AggiornatoSource: Space-Track

Epoca: Sep 14, 2026, 13:53 UTC

1 00172U 61015AY  26257.57864126  .00000413  00000-0  61705-3 0  9994
2 00172  67.0691 323.4931 0131091 358.5202   1.5456 13.59320343217268

Traccia THOR ABLESTAR DEB in tempo reale con AllMySat

Download on the App Store